Date String (YYYY-MM-DD hh:mm:ss) UTC,Instrument flags,absolute air pressure of the measurement (hPa),sample flow rate (lpm),inlet stack bypass flow (lpm),air temperature of the measurement (°C),ambient temperature measured by the external sensor (°C),aerosol sample conditioner tube jacket temperature (°C),OPC LED temperature (°C),internal box temperature (°C),relative humidity of the measurement (%),span deviation,mass concentration of particles derived from Lorenz-Mie calculation of OPC scattering (μg/m³),mass concentration of particles derived from Lorenz-Mie calculation of OPC scattering (μg/m³),mass concentration of particles derived from Lorenz-Mie calculation of OPC scattering (μg/m³)
DateTimeUTC,F1_M11,P_M11,Q1_M11,Q2_M11,T1_M11,T2_M11,T3_M11,T4_M11,T5_M11,U1_M11,ZSPAN_M11,X0_M11,X2_M11,X1_M11
2023-07-11 14:00:00,SystemResetWarning,0831.4,5.00,000.00,029.5,026.0,000.0,037.7,030.8,28.9,0000.0,0011.90,0005.27,0004.36
2023-07-11 14:01:00,SystemResetWarning,0831.3,5.00,000.00,029.4,025.2,000.0,037.6,030.7,28.5,0000.0,0011.89,0005.30,0004.39
2023-07-11 14:02:00,SystemResetWarning,0831.3,5.01,000.00,029.3,025.5,000.0,037.6,030.5,26.2,0000.0,0011.78,0005.34,0004.43
2023-07-11 14:03:00,SystemResetWarning,0831.3,5.00,000.00,029.2,025.8,000.0,037.7,030.5,26.1,0000.0,0010.94,0005.30,0004.45
2023-07-11 14:04:00,SystemResetWarning,0831.3,4.99,000.00,029.2,026.2,000.0,037.7,030.6,26.2,0000.0,0012.43,0005.30,0004.46
2023-07-11 14:05:00,SystemResetWarning,0831.3,5.00,000.00,029.2,026.6,000.0,037.7,030.7,25.5,0000.0,0012.95,0005.28,0004.48
2023-07-11 14:06:00,SystemResetWarning,0831.3,5.00,000.00,029.2,027.0,000.0,037.7,030.7,25.7,0000.0,0013.20,0005.33,0004.49
2023-07-11 14:07:00,SystemResetWarning,0831.4,4.99,000.00,029.2,027.2,000.0,037.7,030.8,23.6,0000.0,0013.59,0005.37,0004.52
2023-07-11 14:08:00,SystemResetWarning,0831.3,4.98,000.00,029.2,027.5,000.0,037.7,030.8,24.0,0000.0,0012.97,0005.38,0004.55
2023-07-11 14:09:00,SystemResetWarning,0831.3,5.01,000.00,029.3,027.7,000.0,037.7,030.9,23.9,0000.0,0012.77,0005.40,0004.58
2023-07-11 14:10:00,SystemResetWarning,0831.3,5.01,000.00,029.3,027.9,000.0,037.8,030.9,23.9,0000.0,0013.03,0005.36,0004.60
2023-07-11 14:11:00,SystemResetWarning,0831.3,4.98,000.00,029.3,028.0,000.0,037.8,031.0,23.0,0000.0,0013.64,0005.36,0004.60
2023-07-11 14:12:00,SystemResetWarning,0831.3,5.01,000.00,029.4,028.1,000.0,037.8,031.0,23.1,0000.0,0013.95,0005.38,0004.61
2023-07-11 14:13:00,SystemResetWarning,0831.3,5.01,000.00,029.4,028.1,000.0,037.8,031.1,22.4,0000.0,0014.01,0005.43,0004.61
2023-07-11 14:14:00,SystemResetWarning,0831.3,4.97,000.00,029.4,026.7,000.0,037.7,030.9,22.1,0000.0,0013.91,0005.50,0004.63
2023-07-11 14:15:00,SystemResetWarning,0831.3,5.01,000.00,029.3,025.3,000.0,037.6,030.7,22.6,0000.0,0012.65,0005.52,0004.66
2023-07-11 14:16:00,SystemResetWarning,0831.3,5.02,000.00,029.2,025.3,000.0,037.5,030.6,22.8,0000.0,0012.36,0005.58,0004.69
2023-07-11 14:17:00,SystemResetWarning,0831.3,5.00,000.00,029.2,025.6,000.0,037.6,030.5,22.5,0000.0,0012.41,0005.61,0004.71
2023-07-11 14:18:00,SystemResetWarning,0831.3,4.99,000.00,029.1,026.0,000.0,037.6,030.5,23.1,0000.0,0012.07,0005.61,0004.71
2023-07-11 14:19:00,SystemResetWarning,0831.3,5.01,000.00,029.1,026.4,000.0,037.6,030.6,23.8,0000.0,0012.11,0005.63,0004.72
2023-07-11 14:20:00,SystemResetWarning,0831.4,5.01,000.00,029.1,026.8,000.0,037.6,030.7,24.0,0000.0,0012.27,0005.66,0004.71
2023-07-11 14:21:00,SystemResetWarning,0831.4,5.00,000.00,029.2,027.1,000.0,037.6,030.7,22.6,0000.0,0011.86,0005.69,0004.71
2023-07-11 14:22:00,SystemResetWarning,0831.4,5.00,000.00,029.2,027.4,000.0,037.6,030.8,22.1,0000.0,0011.42,0005.71,0004.71
2023-07-11 14:23:00,SystemResetWarning,0831.4,5.00,000.00,029.2,027.6,000.0,037.7,030.8,21.5,0000.0,0010.89,0005.67,0004.71
2023-07-11 14:24:00,SystemResetWarning,0831.5,5.01,000.00,029.2,027.8,000.0,037.7,030.9,20.0,0000.0,0010.81,0005.62,0004.71
2023-07-11 14:25:00,SystemResetWarning,0831.5,4.99,000.00,029.3,027.9,000.0,037.7,030.9,21.2,0000.0,0010.89,0005.61,0004.72
2023-07-11 14:26:00,SystemResetWarning,0831.5,5.00,000.00,029.3,028.1,000.0,037.7,031.0,22.1,0000.0,0011.27,0005.60,0004.72
2023-07-11 14:27:00,SystemResetWarning,0831.5,5.00,000.00,029.3,027.9,000.0,037.7,031.0,22.7,0000.0,0011.23,0005.58,0004.72
2023-07-11 14:28:00,SystemResetWarning,0831.5,4.98,000.00,029.3,026.4,000.0,037.6,030.9,22.3,0000.0,0011.02,0005.56,0004.73
2023-07-11 14:29:00,SystemResetWarning,0831.5,5.01,000.00,029.3,025.2,000.0,037.5,030.7,21.8,0000.0,0011.05,0005.57,0004.75
2023-07-11 14:30:00,SystemResetWarning,0831.5,5.02,000.00,029.2,025.4,000.0,037.5,030.6,21.0,0000.0,0011.03,0005.57,0004.77
2023-07-11 14:31:00,SystemResetWarning,0831.5,5.00,000.00,029.1,025.8,000.0,037.5,030.5,21.3,0000.0,0011.19,0005.57,0004.77
2023-07-11 14:32:00,SystemResetWarning,0831.5,5.00,000.00,029.1,026.2,000.0,037.5,030.5,21.0,0000.0,0011.69,0005.60,0004.80
2023-07-11 14:33:00,SystemResetWarning,0831.5,4.99,000.00,029.1,026.5,000.0,037.6,030.6,21.3,0000.0,0011.70,0005.60,0004.81
2023-07-11 14:34:00,SystemResetWarning,0831.5,5.00,000.00,029.1,026.9,000.0,037.6,030.7,22.2,0000.0,0011.59,0005.58,0004.82
2023-07-11 14:35:00,SystemResetWarning,0831.5,4.99,000.00,029.1,027.2,000.0,037.6,030.7,20.2,0000.0,0012.47,0005.58,0004.83
2023-07-11 14:36:00,SystemResetWarning,0831.5,5.00,000.00,029.2,027.4,000.0,037.6,030.8,20.7,0000.0,0013.35,0005.58,0004.83
2023-07-11 14:37:00,SystemResetWarning,0831.5,5.00,000.00,029.2,027.6,000.0,037.6,030.8,21.1,0000.0,0013.30,0005.59,0004.84
2023-07-11 14:38:00,SystemResetWarning,0831.5,5.00,000.00,029.2,027.8,000.0,037.7,030.9,21.2,0000.0,0012.58,0005.57,0004.83
2023-07-11 14:39:00,SystemResetWarning,0831.5,5.00,000.00,029.3,028.0,000.0,037.7,030.9,20.4,0000.0,0012.49,0005.57,0004.82
2023-07-11 14:40:00,SystemResetWarning,0831.4,5.01,000.00,029.3,028.1,000.0,037.7,031.0,19.8,0000.0,0012.56,0005.55,0004.81
2023-07-11 14:41:00,SystemResetWarning,0831.4,4.98,000.00,029.3,027.8,000.0,037.7,031.0,20.2,0000.0,0012.80,0005.59,0004.79
2023-07-11 14:42:00,SystemResetWarning,0831.5,5.00,000.00,029.3,026.2,000.0,037.6,030.8,20.4,0000.0,0013.95,0005.61,0004.78
2023-07-11 14:43:00,SystemResetWarning,0831.4,5.01,000.00,029.2,025.2,000.0,037.5,030.6,20.5,0000.0,0013.21,0005.55,0004.75
2023-07-11 14:44:00,SystemResetWarning,0831.4,5.00,000.00,029.1,025.4,000.0,037.4,030.4,21.9,0000.0,0013.12,0005.53,0004.73
2023-07-11 14:45:00,SystemResetWarning,0831.4,5.00,000.00,029.1,025.8,000.0,037.5,030.4,22.4,0000.0,0013.10,0005.56,0004.73
2023-07-11 14:46:00,SystemResetWarning,0831.4,5.00,000.00,029.1,026.2,000.0,037.5,030.5,23.2,0000.0,0012.34,0005.55,0004.71
2023-07-11 14:47:00,SystemResetWarning,0831.4,5.00,000.00,029.1,026.6,000.0,037.5,030.6,23.8,0000.0,0011.20,0005.55,0004.70
2023-07-11 14:48:00,SystemResetWarning,0831.5,4.99,000.00,029.1,026.9,000.0,037.6,030.6,23.7,0000.0,0010.75,0005.52,0004.69
2023-07-11 14:49:00,SystemResetWarning,0831.5,5.01,000.00,029.1,027.2,000.0,037.6,030.7,24.0,0000.0,0010.73,0005.51,0004.69
2023-07-11 14:50:00,SystemResetWarning,0831.5,4.99,000.00,029.1,027.4,000.0,037.6,030.8,24.0,0000.0,0011.25,0005.55,0004.69
2023-07-11 14:51:00,SystemResetWarning,0831.5,5.00,000.00,029.2,027.6,000.0,037.6,030.8,23.8,0000.0,0011.54,0005.58,0004.69
2023-07-11 14:52:00,SystemResetWarning,0831.4,5.01,000.00,029.2,027.8,000.0,037.6,030.9,23.1,0000.0,0011.66,0005.58,0004.70
2023-07-11 14:53:00,SystemResetWarning,0831.5,5.00,000.00,029.2,028.0,000.0,037.6,030.9,24.0,0000.0,0010.68,0005.55,0004.72
2023-07-11 14:54:00,SystemResetWarning,0831.5,5.00,000.00,029.3,028.1,000.0,037.7,031.0,24.4,0000.0,0011.07,0005.57,0004.74
2023-07-11 14:55:00,SystemResetWarning,0831.5,4.98,000.00,029.3,027.6,000.0,037.6,031.0,25.0,0000.0,0011.66,0005.62,0004.77
2023-07-11 14:56:00,SystemResetWarning,0831.4,5.00,000.00,029.3,025.8,000.0,037.5,030.7,24.8,0000.0,0011.79,0005.66,0004.79
2023-07-11 14:57:00,SystemResetWarning,0831.3,5.02,000.00,029.2,025.1,000.0,037.4,030.5,21.0,0000.0,0011.82,0005.67,0004.80
2023-07-11 14:58:00,SystemResetWarning,0831.5,5.01,000.00,029.1,025.4,000.0,037.4,030.4,22.9,0000.0,0012.15,0005.73,0004.82
2023-07-11 14:59:00,SystemResetWarning,0831.5,4.99,000.00,029.0,025.8,000.0,037.5,030.4,26.7,0000.0,0012.88,0005.74,0004.83
